Wind_Speed
6 1 3 4 2 4 9 6 10 9 6 9 8 8 9 9 7 9 8 6 12 10 14 25 26 33 33 40 38 38 34 29 27 27 17 12 14 17 15 18 16 11 8 8
6 2 3 1 8 8 13 9 14 5 7 5 3 8 10 9 7 15 12 10 9 8 10 17 16 24 31 34 37 38 34 28 25 27 19 16 19 19 21 17 13 11 10 6
2 6 4 8 10 13 4 4 8 3 2 3 3 5 6 3 8 13 14 17 15 15 13 9 16 26 31 32 38 35 32 27 23 25 23 22 22 24 19 16 15 12 7 5
2 10 5 7 14 3 4 6 5 4 5 1 4 1 4 4 3 2 9 10 16 12 14 13 17 20 30 28 32 29 26 24 26 26 23 29 29 26 20 21 16 11 9 8
4 4 9 8 14 4 7 4 3 2 2 1 1 5 6 4 8 5 5 7 10 16 18 16 16 24 30 31 26 26 22 23 23 23 29 31 25 23 26 22 18 15 9 6
7 6 2 7 7 3 7 2 3 3 2 2 5 5 3 5 20 4 5 9 7 10 11 11 23 27 28 24 21 24 21 22 20 26 25 27 31 29 26 20 16 11 6 4
7 8 5 2 3 5 5 5 3 5 6 4 10 2 11 13 8 15 19 13 3 10 13 12 13 17 22 23 23 27 27 22 22 23 27 29 29 25 20 16 11 9 7 3
3 3 4 4 3 4 4 5 4 4 2 4 11 4 6 18 14 15 14 4 5 9 10 13 15 20 27 27 27 25 26 25 22 22 23 23 20 18 13 12 11 9 6 2
4 1 5 10 4 2 4 1 6 6 4 4 5 8 6 10 7 4 6 5 8 9 9 12 17 24 27 23 21 22 25 23 21 20 21 18 15 12 14 13 9 6 3 2
5 2 3 8 7 12 4 3 1 3 4 4 4 3 2 5 5 9 8 9 9 9 10 11 16 23 28 25 22 19 25 25 24 23 20 15 11 13 14 11 9 6 3 4
5 4 5 3 5 12 1 3 2 3 5 4 1 4 3 5 5 10 10 13 15 14 13 13 16 25 31 30 29 23 25 27 26 23 18 11 13 13 13 10 10 6 5 4
10 5 4 15 15 6 4 5 5 5 5 2 4 5 3 6 5 7 8 12 13 15 15 14 21 25 28 32 33 29 26 30 27 21 15 11 14 14 13 11 9 7 7 5
2 0 2 7 6 5 3 4 4 4 3 4 5 5 1 5 5 5 6 7 10 12 12 13 16 23 27 28 34 32 29 32 27 22 16 14 15 15 13 12 10 8 6 6
4 3 6 6 7 2 3 3 5 5 4 3 5 5 10 6 8 7 7 5 9 13 15 15 13 19 27 31 33 35 31 31 28 23 16 16 17 18 13 15 8 5 6 7
4 4 1 3 5 5 4 3 6 5 6 6 8 7 10 0 6 5 6 4 4 7 4 7 12 12 21 23 26 31 31 30 27 21 19 16 14 18 15 5 3 2 7 11
1 1 2 2 6 7 4 6 7 7 6 2 3 6 6 7 7 8 7 7 7 6 7 8 9 11 18 22 26 31 33 31 28 25 18 13 9 11 9 4 6 7 8 11
5 5 3 3 4 5 6 7 7 5 4 4 4 5 10 11 9 7 6 8 7 5 7 8 7 10 17 25 32 31 33 32 25 17 13 15 11 5 6 7 12 14 17 16
5 5 3 3 3 1 8 1 5 5 5 8 8 8 8 6 8 13 9 9 9 8 7 6 5 6 20 25 28 29 31 27 16 19 20 13 9 6 9 9 11 15 14 14
4 5 2 4 4 5 7 3 2 3 4 5 7 8 7 7 6 7 8 8 6 5 4 6 9 9 11 15 24 25 25 26 25 21 21 17 14 10 6 9 16 15 14 18
6 5 4 2 4 6 6 3 5 4 2 4 8 8 7 7 5 3 5 6 8 21 21 26 26 29 31 26 32 35 28 29 25 22 18 15 8 4 10 13 11 15 18 17
3 3 5 2 2 7 6 5 2 6 6 4 5 5 6 3 4 3 3 6 24 23 24 27 32 30 27 28 34 31 28 25 21 16 10 4 3 9 9 10 16 10 13 18
6 6 3 3 3 6 6 3 6 6 3 6 4 3 4 3 6 6 9 14 18 21 23 25 28 26 26 26 29 24 22 13 9 5 3 4 7 9 10 10 10 15 18 17
1 6 5 6 6 7 3 7 6 7 6 5 6 6 6 8 6 7 13 14 18 21 21 22 24 22 21 21 20 18 11 7 6 2 5 10 8 11 8 12 14 16 17 15
1 4 4 5 2 2 3 10 9 9 10 12 12 10 8 7 12 14 13 12 16 18 19 19 20 17 15 12 11 11 7 4 4 7 9 10 9 10 12 14 14 16 19 11
5 4 6 2 2 11 10 7 11 13 13 15 16 15 12 14 13 13 12 12 15 15 14 15 14 13 11 9 8 7 6 9 8 10 12 13 12 12 13 14 14 15 11 15
3 6 4 4 2 9 5 7 12 15 13 12 13 14 15 15 11 13 9 12 12 13 15 16 13 10 7 5 3 7 7 10 13 14 14 14 14 15 14 16 16 13 18 16
Wind_Direction
248 115 210 206 299 350 315 258 265 272 219 168 187 181 191 173 159 131 120 123 155 151 148 158 165 155 155 162 162 168 172 175 179 172 166 161 168 159 160 143 136 131 115 118
356 197 289 86 210 254 272 302 271 260 174 142 126 195 189 179 160 153 160 196 176 142 155 155 140 153 154 158 162 168 175 173 179 181 188 179 165 163 154 151 153 140 132 135
105 264 299 265 295 291 289 287 323 68 8 358 71 32 16 286 173 169 182 189 174 164 157 155 153 141 155 153 166 172 173 173 185 192 186 183 180 160 155 157 150 157 163 154
247 275 230 270 276 305 176 234 327 24 31 235 85 201 356 316 9 277 190 172 182 167 162 162 159 152 156 158 167 170 176 184 183 185 193 180 160 156 162 159 157 156 144 136
256 277 282 256 261 285 243 230 247 254 155 348 328 110 277 173 231 279 321 283 187 170 166 162 159 147 155 161 160 170 176 177 195 209 169 168 165 148 149 143 145 145 158 187
223 208 132 211 268 288 293 317 289 327 75 95 235 131 264 184 225 202 294 259 201 151 158 143 147 151 156 166 171 174 180 157 147 169 164 158 150 145 140 146 161 169 177 159
218 258 234 289 294 350 45 53 344 6 11 233 2 105 223 218 187 196 211 230 223 135 141 137 145 144 148 156 174 165 155 141 150 151 148 151 153 154 158 168 179 169 151 119
156 332 14 13 278 210 238 152 149 163 206 275 359 248 239 210 194 212 207 200 161 133 133 138 135 134 131 144 148 153 153 147 155 156 153 149 153 161 170 172 165 161 174 174
124 216 328 310 320 269 306 324 167 108 324 52 248 298 31 100 169 199 191 184 167 129 130 134 137 141 146 152 160 164 160 157 163 168 165 165 168 177 169 166 167 170 180 158
200 81 316 266 339 297 201 237 46 4 138 239 294 345 174 123 149 178 200 184 151 146 143 149 150 153 160 167 177 181 171 169 168 168 168 175 179 172 170 168 168 172 235 289
142 117 281 13 238 242 254 259 225 148 134 174 147 282 183 84 152 152 189 177 169 170 166 163 162 164 168 175 180 183 178 173 171 172 178 190 185 182 187 187 191 200 224 260
200 155 146 224 229 183 183 191 181 122 264 179 145 270 207 130 160 157 171 189 183 174 175 170 164 167 171 176 182 181 177 174 170 174 185 194 193 198 196 206 214 226 227 248
155 198 48 345 349 325 222 230 232 126 92 188 131 257 197 170 182 170 173 159 176 177 175 175 167 172 173 174 178 181 176 175 178 182 190 196 209 211 227 222 217 209 233 268
106 154 151 186 218 238 342 343 295 165 116 202 207 272 300 262 214 210 188 156 164 180 184 187 178 179 177 177 175 180 175 176 177 179 191 202 211 217 229 229 209 246 278 280
115 158 276 300 324 341 267 216 286 268 212 152 234 217 254 347 117 42 175 181 177 126 161 219 182 170 172 172 172 177 181 177 179 178 184 196 222 230 214 202 222 309 291 288
120 204 83 308 326 11 347 311 298 302 308 316 270 251 220 172 110 75 67 66 91 57 44 39 152 168 170 167 168 180 187 177 175 176 188 207 207 159 119 39 345 296 309 309
132 124 93 245 351 3 344 237 235 238 273 255 294 310 61 53 57 47 41 61 45 59 67 59 104 167 171 173 182 184 183 176 172 180 185 153 145 123 91 32 344 325 317 305
126 110 100 189 35 50 241 235 111 122 48 63 71 69 82 75 57 41 44 82 58 49 34 37 43 136 190 192 192 180 170 162 161 152 128 124 102 72 38 352 328 315 303 304
110 117 105 137 184 286 321 15 81 116 51 41 70 41 39 21 81 20 30 41 48 36 34 40 48 64 90 157 149 137 126 117 113 100 96 90 76 57 6 324 288 295 296 311
57 83 116 129 145 203 234 148 40 45 73 36 62 44 29 33 55 279 29 44 32 46 64 73 64 65 72 78 101 93 84 81 73 71 78 84 70 25 283 291 301 304 307 300
49 4 150 136 178 288 252 142 107 95 224 84 67 73 55 66 177 228 347 70 75 76 73 75 70 70 70 78 87 79 74 67 74 77 66 70 319 282 298 297 294 297 308 307
161 146 190 101 98 280 186 86 132 197 101 87 60 64 51 35 9 20 61 77 83 81 76 77 80 78 82 88 89 89 86 84 72 98 163 248 278 292 288 285 299 303 310 310
123 176 177 163 210 227 134 133 142 115 104 56 65 31 43 55 34 43 89 87 86 85 84 86 89 86 83 89 93 103 117 145 159 239 297 304 302 294 277 296 301 298 301 289
85 134 108 78 279 179 129 61 73 74 79 69 65 54 49 56 75 79 83 79 82 86 91 98 100 103 101 101 96 88 75 38 339 309 303 302 292 291 290 294 292 293 300 271
199 120 151 213 125 81 47 55 88 72 66 81 66 58 66 81 71 79 79 79 88 97 100 94 89 83 77 65 56 35 338 320 312 299 291 289 289 291 293 296 295 302 287 297
171 174 144 205 105 104 94 76 85 82 73 74 83 67 55 77 87 88 84 84 83 80 81 77 74 75 62 24 343 319 305 291 293 290 286 283 282 282 285 290 292 279 299 300
Height
777 791 797 783 777 775 780 784 788 773 761 768 777 778 777 772 777 784 785 789 786 790 791 795 799 803 808 811 817 821 823 828 834 835 840 845 849 850 852 853 854 856 857 859
788 793 775 769 773 778 778 781 780 765 755 767 773 780 773 770 775 780 786 786 786 788 790 791 797 801 804 810 814 818 821 826 831 834 839 842 846 849 850 851 854 855 857 859
793 786 771 773 780 785 782 787 782 775 762 761 768 792 789 773 767 775 776 775 778 782 787 791 794 799 803 808 812 815 819 823 827 832 837 841 845 847 848 850 852 855 857 859
791 772 776 780 785 771 782 768 771 770 783 802 776 819 794 785 774 772 772 775 775 778 781 786 790 796 801 807 812 817 819 821 824 829 833 835 838 842 845 848 852 855 856 856
789 780 783 788 782 765 779 764 768 771 783 789 794 811 802 780 786 779 781 775 773 771 775 782 788 793 800 806 809 814 817 820 822 825 828 832 836 839 842 847 850 852 853 853
776 763 770 772 764 759 761 767 771 778 793 826 789 799 803 799 777 778 773 765 764 773 775 780 785 792 797 802 808 813 816 819 819 822 825 827 831 835 839 844 847 849 850 850
775 770 768 762 774 766 772 786 817 827 840 834 792 800 789 772 767 763 757 759 767 768 774 780 785 791 796 801 806 811 815 817 819 821 824 827 830 834 839 842 844 846 848 848
790 803 783 772 776 776 776 785 822 838 840 825 787 800 779 749 749 755 756 761 769 771 775 779 784 790 793 801 807 811 814 816 819 822 825 828 831 835 838 840 842 843 844 846
795 792 776 771 767 771 772 790 773 813 821 827 807 773 756 754 763 766 767 770 773 773 777 781 786 790 796 802 807 811 813 816 819 822 825 829 832 834 837 839 842 845 845 845
789 797 787 781 772 763 766 767 796 803 824 827 803 787 789 771 764 764 774 773 770 771 776 781 785 790 794 800 806 811 814 817 820 824 828 831 833 836 838 840 842 842 846 847
780 788 791 783 785 781 776 780 775 784 810 828 839 810 763 765 762 766 768 763 764 767 772 777 782 787 791 797 803 808 813 816 820 824 828 831 834 837 838 839 840 841 843 843
770 785 807 783 759 752 757 770 782 822 804 819 830 815 759 757 756 756 758 759 760 762 766 770 776 782 787 792 798 802 807 812 817 822 827 831 834 837 838 839 840 841 841 842
755 776 815 795 777 760 764 760 762 775 801 807 834 812 759 753 752 751 754 752 759 760 764 766 771 775 781 786 791 796 800 805 811 817 822 827 832 835 837 838 839 838 840 839
751 765 788 813 788 768 770 766 764 773 816 809 812 785 768 761 758 754 752 749 755 755 757 761 765 768 772 776 782 789 795 801 806 812 818 823 827 831 834 835 836 837 837 838
757 776 766 768 767 764 762 764 764 768 774 794 784 777 765 754 756 752 751 750 749 755 757 760 760 765 770 776 782 787 794 797 803 809 814 819 823 827 830 832 833 832 833 833
753 780 770 775 767 770 774 767 764 764 760 760 762 768 750 748 749 753 754 754 755 757 757 756 759 764 768 773 779 785 789 794 799 804 809 815 820 825 827 829 829 831 831 829
766 785 796 793 787 784 802 773 765 761 757 759 774 766 758 759 758 758 757 757 758 756 758 759 762 765 768 771 775 779 785 791 797 802 807 812 815 819 822 826 829 829 828 827
772 779 799 809 807 819 773 746 748 757 761 761 763 764 762 762 763 760 759 761 762 761 760 760 761 764 767 769 772 777 783 791 797 802 806 808 814 818 820 824 825 826 826 825
759 785 801 811 813 788 765 756 755 758 773 763 766 765 764 761 763 769 765 763 763 761 762 762 764 765 768 770 773 779 787 792 796 801 804 808 814 820 822 822 822 822 821 820
764 776 797 809 812 816 778 753 747 749 792 765 765 767 766 765 794 780 766 764 764 767 768 769 772 772 772 778 779 783 792 796 803 809 810 809 813 816 817 816 819 820 817 816
796 797 804 821 821 795 758 749 747 787 793 763 764 766 768 774 777 769 765 767 771 774 777 778 778 782 788 789 788 794 800 803 807 808 812 814 815 814 814 815 816 815 814 812
782 798 811 805 809 799 749 750 769 771 761 763 764 764 766 766 767 767 768 774 777 781 784 786 786 791 795 796 796 800 803 808 808 809 809 811 811 813 812 812 813 812 810 809
772 766 780 777 782 756 745 751 751 754 761 764 766 766 766 770 771 771 777 781 785 787 790 793 793 797 799 800 800 803 804 805 808 810 811 811 810 810 810 809 808 808 807 805
740 740 764 761 748 747 747 754 754 756 762 766 769 771 770 773 775 780 784 788 790 793 794 796 797 800 803 804 804 806 808 809 809 810 810 810 809 808 807 806 805 804 802 801
747 741 749 756 748 755 760 760 761 764 765 770 775 777 779 779 785 788 792 795 797 797 798 800 802 804 807 808 808 809 809 810 810 810 809 808 807 805 804 802 801 800 798 796
736 743 762 774 751 755 767 766 765 768 773 776 779 785 788 788 792 794 797 800 801 803 803 804 806 808 809 809 809 809 809 809 808 807 805 804 803 801 799 798 795 795 794 792